{"data":{"norad_id":68722,"epoch":"2026-05-25T04:00:03.998880Z","epoch_age_seconds":57876,"freshness":"FRESH","line1":"1 68722U 26081Z   26145.16671295 -.01834020  00000+0 -46168-1 0  9992","line2":"2 68722  53.1599  38.7552 0001014  96.2998 247.5808 15.42574792  6015","mean_motion":15.42574792,"eccentricity":0.0001014,"inclination_deg":53.1599,"raan_deg":38.7552,"arg_perigee_deg":96.2998,"mean_anomaly_deg":247.5808,"bstar":-0.046168,"rev_number":601,"period_min":93.350416943673,"perigee_km":437.82219200596,"apogee_km":439.20460870716,"semimajor_km":6816.6504003566,"source":"CELESTRAK","updated_at":"2026-05-25T13:38:22.002860Z"}}